FLOCK 4BE 15

导读 | 星芒AI

FLOCK 4BE 15 是由 Planet Labs 运营的 Dove 系列小型地球观测卫星之一,属于 Flock 4B 组网的一部分。该卫星主要用于高分辨率光学成像,支持全球范围内的日常地球监测。它以低成本、高效率的特点,广泛应用于环境监测、农业管理、灾害评估等领域。FLOCK 4BE 15 于 2017 年发射,与其他 Dove 卫星协同工作,提供频繁的图像更新和数据覆盖,助力遥感技术的普及与应用。

基本信息
目录编号:
60491
目录名称:
FLOCK 4BE 15
国际标识:
2024-149Z
轨道中心:
EARTH
卫星名称:
FLOCK 4BE 15
卫星全名:
FLOCK 4BE 15
卫星状态:
在轨 (已飞行432 天)
发射日期:
2024-08-16 UTC
国别 :
美国 (US)
星等 :
--
轨道信息
数据来源 国际轨道数据
星历时间: 2025-10-22T12:23:56+0800
10小时前
查看轨道信息
半长轴: 6843.486km
偏心率: 0.000471
轨道倾角: 97.396°
近地点辐角 76.415°
升交点赤经 12.795°
平近点角 283.761°
近地点: 462.127km
远地点: 468.575km
周期: 93.902分钟
每日圈数: 15.335104
详细信息
使用方式:
暂无
2D轨道图
3D轨道图
轨道高度分析图
轨道倾角分析图
轨道综合分析图
查看轨道综合分析图